Stündliche Wetter Kyzylivka

Heute, 11 Mai, Dienstag

Zeit Temperatur Niederschläge Wind Luftdruck Luftfeuchtigkeit
00:00 +7°C° 0 mm 2 m/S 733 mmHg 75%
01:00 +7°C° 0 mm 3 m/S 732 mmHg 78%
02:00 +5°C° 0 mm 3 m/S 732 mmHg 81%
03:00 +5°C° 0 mm 3 m/S 732 mmHg 84%
04:00 +5°C° 0 mm 3 m/S 731 mmHg 86%
05:00 +5°C° 0 mm 3 m/S 731 mmHg 89%
06:00 +7°C° 0 mm 3 m/S 731 mmHg 85%
07:00 +8°C° 0 mm 3 m/S 731 mmHg 80%
08:00 +9°C° 0 mm 3 m/S 731 mmHg 76%
09:00 +10°C° 0 mm 3 m/S 730 mmHg 74%
10:00 +10°C° 0 mm 4 m/S 730 mmHg 72%
11:00 +10°C° 0 mm 4 m/S 730 mmHg 70%
12:00 +11°C° 0 mm 4 m/S 730 mmHg 72%
13:00 +11°C° 0 mm 4 m/S 730 mmHg 75%
14:00 +11°C° 0 mm 3 m/S 729 mmHg 78%
15:00 +12°C° 0 mm 3 m/S 729 mmHg 78%
16:00 +12°C° 0 mm 3 m/S 729 mmHg 79%
17:00 +12°C° 0 mm 3 m/S 729 mmHg 79%
18:00 +11°C° 0 mm 3 m/S 728 mmHg 82%
19:00 +12°C° 0 mm 2 m/S 728 mmHg 85%
20:00 +11°C° 0 mm 1 m/S 728 mmHg 89%
21:00 +11°C° 0 mm 1 m/S 728 mmHg 90%
22:00 +11°C° 0 mm 1 m/S 728 mmHg 91%
23:00 +11°C° 0 mm 1 m/S 728 mmHg 92%

Morgen, 12 Mai, Mittwoch

Zeit Temperatur Niederschläge Wind Luftdruck Luftfeuchtigkeit
00:00 +10°C° 0 mm 1 m/S 728 mmHg 93%
01:00 +10°C° 0 mm 1 m/S 727 mmHg 94%
02:00 +9°C° 0 mm 1 m/S 727 mmHg 95%
03:00 +9°C° 0 mm 1 m/S 727 mmHg 94%
04:00 +8°C° 0 mm 2 m/S 727 mmHg 94%
05:00 +8°C° 0 mm 2 m/S 727 mmHg 94%
06:00 +9°C° 0 mm 2 m/S 727 mmHg 88%
07:00 +12°C° 0 mm 2 m/S 727 mmHg 82%
08:00 +13°C° 0 mm 2 m/S 727 mmHg 76%
09:00 +14°C° 0 mm 2 m/S 727 mmHg 72%
10:00 +14°C° 0 mm 2 m/S 727 mmHg 69%
11:00 +14°C° 0 mm 3 m/S 727 mmHg 66%
12:00 +14°C° 0 mm 2 m/S 727 mmHg 68%
13:00 +13°C° 0 mm 2 m/S 727 mmHg 70%
14:00 +12°C° 0 mm 2 m/S 728 mmHg 72%
15:00 +13°C° 0 mm 1 m/S 727 mmHg 70%
16:00 +14°C° 0 mm 1 m/S 727 mmHg 69%
17:00 +14°C° 0 mm 1 m/S 727 mmHg 67%
18:00 +13°C° 0 mm 1 m/S 727 mmHg 73%
19:00 +12°C° 0 mm 1 m/S 727 mmHg 80%
20:00 +10°C° 0 mm 1 m/S 727 mmHg 86%
21:00 +10°C° 0 mm 1 m/S 727 mmHg 87%
22:00 +10°C° 0 mm 1 m/S 727 mmHg 88%
23:00 +9°C° 0 mm 1 m/S 727 mmHg 89%

übermorgen, 13 Mai, Donnerstag

Zeit Temperatur Niederschläge Wind Luftdruck Luftfeuchtigkeit
00:00 +9°C° 0 mm 1 m/S 727 mmHg 89%
01:00 +9°C° 0 mm 1 m/S 727 mmHg 89%
02:00 +9°C° 0 mm 1 m/S 726 mmHg 89%
03:00 +8°C° 0 mm 2 m/S 726 mmHg 88%
04:00 +9°C° 0 mm 2 m/S 726 mmHg 86%
05:00 +9°C° 0 mm 2 m/S 726 mmHg 85%
06:00 +13°C° 0 mm 2 m/S 726 mmHg 74%
07:00 +15°C° 0 mm 2 m/S 726 mmHg 64%
08:00 +18°C° 0 mm 2 m/S 726 mmHg 54%
09:00 +19°C° 0 mm 2 m/S 726 mmHg 50%
10:00 +20°C° 0 mm 2 m/S 726 mmHg 46%
11:00 +21°C° 0 mm 2 m/S 726 mmHg 41%
12:00 +23°C° 0 mm 2 m/S 726 mmHg 40%
13:00 +22°C° 0 mm 3 m/S 726 mmHg 39%
14:00 +22°C° 0 mm 3 m/S 726 mmHg 38%
15:00 +21°C° 0 mm 2 m/S 726 mmHg 43%
16:00 +20°C° 0 mm 2 m/S 726 mmHg 48%
17:00 +19°C° 0 mm 2 m/S 726 mmHg 53%
18:00 +17°C° 0 mm 2 m/S 726 mmHg 58%
19:00 +15°C° 0 mm 1 m/S 726 mmHg 63%
20:00 +13°C° 0 mm 1 m/S 726 mmHg 69%
21:00 +13°C° 0 mm 1 m/S 726 mmHg 64%
22:00 +13°C° 0 mm 1 m/S 725 mmHg 59%
23:00 +13°C° 0 mm 1 m/S 725 mmHg 54%

14 Mai, Freitag

Zeit Temperatur Niederschläge Wind Luftdruck Luftfeuchtigkeit
00:00 +13°C° 0 mm 1 m/S 725 mmHg 54%
01:00 +13°C° 0 mm 1 m/S 725 mmHg 54%
02:00 +13°C° 0 mm 1 m/S 725 mmHg 53%
03:00 +13°C° 0 mm 1 m/S 725 mmHg 52%
04:00 +13°C° 0 mm 1 m/S 725 mmHg 51%
05:00 +14°C° 0 mm 1 m/S 725 mmHg 49%
06:00 +16°C° 0 mm 1 m/S 726 mmHg 46%
07:00 +20°C° 0 mm 1 m/S 726 mmHg 42%
08:00 +22°C° 0 mm 1 m/S 726 mmHg 38%
09:00 +23°C° 0 mm 1 m/S 726 mmHg 37%
10:00 +24°C° 0 mm 2 m/S 727 mmHg 36%
11:00 +25°C° 0 mm 2 m/S 727 mmHg 36%
12:00 +25°C° 0 mm 2 m/S 727 mmHg 37%
13:00 +25°C° 0 mm 3 m/S 727 mmHg 38%
14:00 +25°C° 0 mm 3 m/S 727 mmHg 40%
15:00 +24°C° 0 mm 3 m/S 727 mmHg 44%
16:00 +22°C° 0 mm 3 m/S 727 mmHg 48%
17:00 +21°C° 0 mm 2 m/S 727 mmHg 53%
18:00 +19°C° 0 mm 2 m/S 727 mmHg 59%
19:00 +17°C° 0 mm 2 m/S 727 mmHg 66%
20:00 +15°C° 0 mm 2 m/S 727 mmHg 73%
21:00 +15°C° 0 mm 2 m/S 727 mmHg 72%
22:00 +14°C° 0 mm 2 m/S 727 mmHg 70%
23:00 +14°C° 0 mm 2 m/S 727 mmHg 68%

15 Mai, Samstag

Zeit Temperatur Niederschläge Wind Luftdruck Luftfeuchtigkeit
00:00 +14°C° 0 mm 2 m/S 727 mmHg 70%
01:00 +14°C° 0 mm 2 m/S 728 mmHg 72%
02:00 +13°C° 0 mm 2 m/S 728 mmHg 74%
03:00 +13°C° 0 mm 2 m/S 728 mmHg 75%
04:00 +14°C° 0 mm 2 m/S 728 mmHg 76%
05:00 +14°C° 0 mm 2 m/S 728 mmHg 77%
06:00 +16°C° 0 mm 2 m/S 728 mmHg 70%
07:00 +18°C° 0 mm 3 m/S 729 mmHg 64%
08:00 +20°C° 0 mm 3 m/S 729 mmHg 57%
09:00 +21°C° 0 mm 3 m/S 729 mmHg 54%
10:00 +22°C° 0 mm 3 m/S 729 mmHg 51%
11:00 +23°C° 0 mm 4 m/S 729 mmHg 49%
12:00 +22°C° 0 mm 4 m/S 729 mmHg 50%
13:00 +22°C° 0 mm 4 m/S 729 mmHg 51%
14:00 +22°C° 0 mm 4 m/S 729 mmHg 52%
15:00 +21°C° 0 mm 4 m/S 729 mmHg 56%
16:00 +20°C° 0 mm 3 m/S 729 mmHg 59%
17:00 +20°C° 0 mm 2 m/S 729 mmHg 63%
18:00 +18°C° 0 mm 2 m/S 729 mmHg 70%
19:00 +16°C° 0 mm 1 m/S 729 mmHg 77%
20:00 +15°C° 0 mm 1 m/S 728 mmHg 84%
21:00 +15°C° 0 mm 1 m/S 728 mmHg 84%
22:00 +14°C° 0 mm 1 m/S 728 mmHg 84%
23:00 +14°C° 0 mm 2 m/S 727 mmHg 84%

16 Mai, Sonntag

Zeit Temperatur Niederschläge Wind Luftdruck Luftfeuchtigkeit
00:00 +14°C° 0 mm 2 m/S 727 mmHg 82%
01:00 +13°C° 0 mm 2 m/S 727 mmHg 79%
02:00 +13°C° 0 mm 2 m/S 727 mmHg 76%
03:00 +13°C° 0 mm 2 m/S 726 mmHg 74%
04:00 +14°C° 0 mm 2 m/S 726 mmHg 72%
05:00 +14°C° 0 mm 2 m/S 726 mmHg 70%
06:00 +16°C° 0 mm 2 m/S 726 mmHg 63%
07:00 +19°C° 0 mm 2 m/S 726 mmHg 56%
08:00 +21°C° 0 mm 3 m/S 726 mmHg 48%
09:00 +22°C° 0 mm 3 m/S 725 mmHg 45%
10:00 +23°C° 0 mm 4 m/S 725 mmHg 41%
11:00 +25°C° 0 mm 4 m/S 725 mmHg 38%
12:00 +25°C° 0 mm 4 m/S 725 mmHg 40%
13:00 +25°C° 0 mm 4 m/S 724 mmHg 43%
14:00 +26°C° 0 mm 4 m/S 724 mmHg 45%
15:00 +23°C° 0 mm 4 m/S 724 mmHg 52%
16:00 +22°C° 0 mm 3 m/S 724 mmHg 58%
17:00 +21°C° 0 mm 3 m/S 724 mmHg 65%
18:00 +19°C° 0 mm 2 m/S 723 mmHg 72%
19:00 +17°C° 0 mm 2 m/S 723 mmHg 79%
20:00 +15°C° 0 mm 1 m/S 723 mmHg 86%
21:00 +15°C° 0.6 mm 1 m/S 722 mmHg 88%
22:00 +16°C° 0.6 mm 1 m/S 722 mmHg 89%
23:00 +16°C° 0.6 mm 1 m/S 722 mmHg 91%
Mehr zeigen

Wir brauchen deine Erlaubnis

Meteoprog und unser Service Anbieter werden persönliche Daten aufbewahren, so wie Cookies, Geräte Bezeichnung oder ähnliche Technologien von deinem Gerät und Prozess, so wie Persönliche Daten Inhalte und Werbungen, genauso wie social Media und den Verkehr zu analysieren.

  • Aufbewahrung und/oder Zugang zu deiner Geräte Informationen.

    Cookies, Geräte Bezeichnung oder andere Informationen, können aufbewahrt oder Zugang zu deinem Gerät erhalten, für den Grund, der oben angegeben wird.

  • Personalisierte Werbung und Inhalte, Messungen, Einblick in das Publikum und Produkt Entwicklung.

    Werbungen und Inhalte können personalisiert werden, basierend auf ein Profil. Mehr Daten können besser personalisierte Werbungen und Inhalte hinzufügen. Werbung und Inhalte können gezeigt und gemessen werden. Einblicke über das Publikum, welche die Werbung gesehen haben und den Inhalt, können abgeleitet werden. So wie Daten können genutzt werden, um es zu verbessern oder die Benutzer Erfahrung zu verbessern das System und die Software.

Wenn du “Ich stimme zu” klickst, erlaubst du uns, die Cookies zu benutzen die Geräte Bezeichnung, den Web oder ähnliche Technologien zu benutzen. Deine Settings, können in deinem Gerät bei deinem Browser geändert werden.

Für den bestimmten Zweck, berechtigten Interessen beruhen darauf, mehr als auf den Inhalt. Du kannst mehr darüber in unseren Privaten und Cookie Politik lesen.